When you browse on this site, cookies collect data to enhance your experience and personalize the content and advertising you see.
Visit our Privacy Policy to learn more. By continuing to use the site, you agree to this use of cookies and data.
  • In Hungary
  • List of Countries
  • For 7 days
  • Water Temperature
  • Weather Map
  • News
  • Weather Widgets
  • user-avatar
    Login

    Hourly Weather Kolodeckiy

    Today, 18 August, Sunday

    Time Temperature Precipitation Wind Pressure Humidity
    00:00 +18°C° 0 mm 1 mps 736 mmHg 94%
    01:00 +18°C° 0 mm 1 mps 736 mmHg 95%
    02:00 +16°C° 0 mm 2 mps 736 mmHg 97%
    03:00 +16°C° 0 mm 2 mps 736 mmHg 97%
    04:00 +16°C° 0 mm 2 mps 736 mmHg 97%
    05:00 +15°C° 0 mm 2 mps 736 mmHg 98%
    06:00 +16°C° 0 mm 3 mps 736 mmHg 96%
    07:00 +17°C° 0 mm 3 mps 737 mmHg 93%
    08:00 +17°C° 0 mm 3 mps 737 mmHg 90%
    09:00 +18°C° 0 mm 3 mps 737 mmHg 87%
    10:00 +18°C° 0 mm 3 mps 737 mmHg 85%
    11:00 +19°C° 0 mm 3 mps 738 mmHg 82%
    12:00 +19°C° 0 mm 3 mps 738 mmHg 80%
    13:00 +19°C° 0 mm 3 mps 738 mmHg 78%
    14:00 +20°C° 0 mm 3 mps 739 mmHg 76%
    15:00 +19°C° 0 mm 3 mps 739 mmHg 77%
    16:00 +19°C° 0 mm 3 mps 739 mmHg 78%
    17:00 +19°C° 0 mm 3 mps 739 mmHg 79%
    18:00 +18°C° 0 mm 3 mps 740 mmHg 83%
    19:00 +17°C° 0 mm 3 mps 740 mmHg 88%
    20:00 +16°C° 0 mm 2 mps 740 mmHg 92%
    21:00 +16°C° 0 mm 2 mps 740 mmHg 94%
    22:00 +15°C° 0 mm 2 mps 741 mmHg 95%
    23:00 +15°C° 0 mm 2 mps 741 mmHg 97%

    Tomorrow, 19 August, Monday

    Time Temperature Precipitation Wind Pressure Humidity
    00:00 +15°C° 0 mm 2 mps 741 mmHg 97%
    01:00 +14°C° 0 mm 2 mps 741 mmHg 97%
    02:00 +14°C° 0 mm 2 mps 742 mmHg 97%
    03:00 +14°C° 0 mm 2 mps 742 mmHg 97%
    04:00 +14°C° 0 mm 2 mps 742 mmHg 97%
    05:00 +14°C° 0 mm 2 mps 742 mmHg 96%
    06:00 +14°C° 0 mm 3 mps 743 mmHg 92%
    07:00 +17°C° 0 mm 3 mps 743 mmHg 88%
    08:00 +18°C° 0 mm 3 mps 743 mmHg 84%
    09:00 +19°C° 0 mm 3 mps 744 mmHg 78%
    10:00 +21°C° 0 mm 3 mps 744 mmHg 71%
    11:00 +22°C° 0 mm 4 mps 744 mmHg 65%
    12:00 +23°C° 0 mm 4 mps 744 mmHg 63%
    13:00 +25°C° 0 mm 3 mps 744 mmHg 60%
    14:00 +25°C° 0 mm 3 mps 745 mmHg 58%
    15:00 +25°C° 0 mm 3 mps 745 mmHg 60%
    16:00 +25°C° 0 mm 2 mps 745 mmHg 63%
    17:00 +25°C° 0 mm 2 mps 745 mmHg 66%
    18:00 +23°C° 0 mm 2 mps 745 mmHg 70%
    19:00 +22°C° 0 mm 1 mps 746 mmHg 74%
    20:00 +20°C° 0 mm 1 mps 746 mmHg 78%
    21:00 +19°C° 0 mm 1 mps 746 mmHg 79%
    22:00 +19°C° 0 mm 1 mps 746 mmHg 81%
    23:00 +18°C° 0 mm 1 mps 746 mmHg 82%

    Day after tomorrow, 20 August, Tuesday

    Time Temperature Precipitation Wind Pressure Humidity
    00:00 +18°C° 0 mm 1 mps 746 mmHg 83%
    01:00 +18°C° 0 mm 1 mps 746 mmHg 85%
    02:00 +16°C° 0 mm 1 mps 747 mmHg 86%
    03:00 +16°C° 0 mm 1 mps 747 mmHg 85%
    04:00 +16°C° 0 mm 1 mps 747 mmHg 85%
    05:00 +15°C° 0 mm 0 mps 747 mmHg 85%
    06:00 +19°C° 0 mm 1 mps 747 mmHg 78%
    07:00 +21°C° 0 mm 1 mps 748 mmHg 72%
    08:00 +22°C° 0 mm 1 mps 748 mmHg 66%
    09:00 +24°C° 0 mm 1 mps 748 mmHg 61%
    10:00 +25°C° 0 mm 1 mps 748 mmHg 55%
    11:00 +25°C° 0 mm 0 mps 748 mmHg 50%
    12:00 +27°C° 0 mm 1 mps 748 mmHg 48%
    13:00 +28°C° 0 mm 1 mps 748 mmHg 47%
    14:00 +28°C° 0 mm 1 mps 748 mmHg 45%
    15:00 +28°C° 0 mm 1 mps 748 mmHg 49%
    16:00 +27°C° 0 mm 1 mps 748 mmHg 53%
    17:00 +27°C° 0 mm 2 mps 748 mmHg 58%
    18:00 +25°C° 0 mm 1 mps 748 mmHg 62%
    19:00 +24°C° 0 mm 1 mps 748 mmHg 67%
    20:00 +22°C° 0 mm 1 mps 748 mmHg 71%
    21:00 +22°C° 0 mm 1 mps 748 mmHg 73%
    22:00 +21°C° 0 mm 1 mps 748 mmHg 75%
    23:00 +19°C° 0 mm 0 mps 748 mmHg 76%

    21 August, Wednesday

    Time Temperature Precipitation Wind Pressure Humidity
    00:00 +21°C° 0 mm 1 mps 748 mmHg 78%
    01:00 +20°C° 0 mm 1 mps 748 mmHg 79%
    02:00 +20°C° 0 mm 1 mps 748 mmHg 81%
    03:00 +20°C° 0 mm 1 mps 748 mmHg 82%
    04:00 +20°C° 0 mm 1 mps 748 mmHg 83%
    05:00 +18°C° 0 mm 0 mps 748 mmHg 84%
    06:00 +21°C° 0 mm 1 mps 748 mmHg 79%
    07:00 +23°C° 0 mm 1 mps 749 mmHg 74%
    08:00 +25°C° 0 mm 1 mps 749 mmHg 70%
    09:00 +26°C° 0 mm 2 mps 749 mmHg 66%
    10:00 +27°C° 0 mm 2 mps 748 mmHg 62%
    11:00 +28°C° 0 mm 3 mps 748 mmHg 59%
    12:00 +29°C° 0 mm 3 mps 748 mmHg 57%
    13:00 +29°C° 0 mm 3 mps 748 mmHg 55%
    14:00 +30°C° 0 mm 3 mps 748 mmHg 53%
    15:00 +29°C° 0 mm 3 mps 747 mmHg 57%
    16:00 +29°C° 0 mm 3 mps 747 mmHg 60%
    17:00 +28°C° 0 mm 2 mps 747 mmHg 64%
    18:00 +27°C° 0 mm 2 mps 747 mmHg 69%
    19:00 +25°C° 0 mm 2 mps 747 mmHg 73%
    20:00 +24°C° 0 mm 2 mps 747 mmHg 77%
    21:00 +23°C° 0 mm 2 mps 746 mmHg 79%
    22:00 +23°C° 0 mm 2 mps 746 mmHg 81%
    23:00 +21°C° 0 mm 2 mps 746 mmHg 83%

    22 August, Thursday

    Time Temperature Precipitation Wind Pressure Humidity
    00:00 +21°C° 0 mm 2 mps 746 mmHg 84%
    01:00 +21°C° 0 mm 1 mps 746 mmHg 86%
    02:00 +21°C° 0 mm 1 mps 746 mmHg 87%
    03:00 +21°C° 0 mm 1 mps 746 mmHg 88%
    04:00 +20°C° 0 mm 1 mps 746 mmHg 88%
    05:00 +20°C° 0 mm 1 mps 745 mmHg 89%
    06:00 +22°C° 0 mm 1 mps 746 mmHg 83%
    07:00 +23°C° 0 mm 2 mps 746 mmHg 76%
    08:00 +25°C° 0 mm 2 mps 746 mmHg 70%
    09:00 +26°C° 0 mm 2 mps 746 mmHg 64%
    10:00 +27°C° 0 mm 2 mps 745 mmHg 58%
    11:00 +28°C° 0 mm 2 mps 745 mmHg 52%
    12:00 +29°C° 0 mm 2 mps 745 mmHg 49%
    13:00 +29°C° 0 mm 1 mps 745 mmHg 47%
    14:00 +30°C° 0 mm 1 mps 744 mmHg 45%
    15:00 +29°C° 0 mm 1 mps 744 mmHg 49%
    16:00 +29°C° 0 mm 1 mps 744 mmHg 53%
    17:00 +28°C° 0 mm 2 mps 744 mmHg 57%
    18:00 +27°C° 0 mm 2 mps 744 mmHg 61%
    19:00 +25°C° 0 mm 2 mps 744 mmHg 65%
    20:00 +24°C° 0 mm 2 mps 744 mmHg 69%
    21:00 +23°C° 0 mm 2 mps 744 mmHg 73%
    22:00 +21°C° 0 mm 3 mps 744 mmHg 77%
    23:00 +21°C° 0 mm 3 mps 745 mmHg 81%

    23 August, Friday

    Time Temperature Precipitation Wind Pressure Humidity
    00:00 +20°C° 0 mm 3 mps 745 mmHg 85%
    01:00 +20°C° 0 mm 3 mps 745 mmHg 90%
    02:00 +19°C° 0 mm 4 mps 745 mmHg 94%
    03:00 +19°C° 0 mm 4 mps 745 mmHg 93%
    04:00 +19°C° 0 mm 4 mps 745 mmHg 92%
    05:00 +18°C° 0 mm 4 mps 745 mmHg 91%
    06:00 +19°C° 0.2 mm 4 mps 745 mmHg 90%
    07:00 +19°C° 0.2 mm 4 mps 745 mmHg 88%
    08:00 +19°C° 0.2 mm 4 mps 745 mmHg 87%
    09:00 +19°C° 0.3 mm 4 mps 745 mmHg 85%
    10:00 +20°C° 0.3 mm 4 mps 745 mmHg 84%
    11:00 +20°C° 0.3 mm 4 mps 745 mmHg 82%
    12:00 +20°C° 0.4 mm 4 mps 745 mmHg 81%
    13:00 +21°C° 0.4 mm 4 mps 745 mmHg 79%
    14:00 +21°C° 0.4 mm 4 mps 745 mmHg 77%
    15:00 +20°C° 0.2 mm 4 mps 745 mmHg 80%
    16:00 +19°C° 0.2 mm 4 mps 744 mmHg 83%
    17:00 +17°C° 0.2 mm 5 mps 744 mmHg 86%
    18:00 +17°C° 0.2 mm 5 mps 744 mmHg 86%
    19:00 +17°C° 0.2 mm 5 mps 744 mmHg 87%
    20:00 +16°C° 0.2 mm 6 mps 744 mmHg 87%
    21:00 +16°C° 1.3 mm 6 mps 744 mmHg 88%
    22:00 +15°C° 1.3 mm 6 mps 744 mmHg 89%
    23:00 +14°C° 1.3 mm 6 mps 744 mmHg 91%
    Show more